TimeAKST,TemperatureF,Dew PointF,Humidity,Sea Level PressureIn,VisibilityMPH,Wind Direction,Wind SpeedMPH,Gust SpeedMPH,PrecipitationIn,Events,Conditions,WindDirDegrees,DateUTC
12:53 AM,-33.0,-9999,N/A,30.10,8.0,Calm,Calm,-,N/A,,Clear,0,2013-02-26 09:53:00
1:53 AM,-40.0,-9999,N/A,30.12,9.0,East,3.5,-,N/A,,Clear,80,2013-02-26 10:53:00
3:53 AM,-42.0,-9999,N/A,30.12,9.0,ENE,6.9,-,N/A,,Clear,70,2013-02-26 12:53:00
4:53 AM,-38.9,-9999,N/A,30.12,9.0,NE,3.5,-,N/A,,Clear,40,2013-02-26 13:53:00
5:53 AM,-40.0,-9999,N/A,30.11,9.0,NE,5.8,-,N/A,,Clear,40,2013-02-26 14:53:00
6:53 AM,-41.1,-9999,N/A,30.10,9.0,NE,6.9,-,N/A,,Clear,50,2013-02-26 15:53:00
7:53 AM,-38.9,-9999,N/A,30.08,9.0,ENE,4.6,-,N/A,,Clear,60,2013-02-26 16:53:00
8:53 AM,-36.0,-9999,N/A,30.06,6.0,NE,6.9,-,N/A,,Haze,50,2013-02-26 17:53:00
9:53 AM,-35.0,-9999,N/A,30.05,8.0,NNE,6.9,-,N/A,,Clear,30,2013-02-26 18:53:00
10:53 AM,-32.1,-9999,N/A,30.05,8.0,North,4.6,-,N/A,,Clear,350,2013-02-26 19:53:00
11:53 AM,-27.0,-31.0,81,30.04,8.0,Calm,Calm,-,N/A,,Clear,0,2013-02-26 20:53:00
12:53 PM,-26.0,-31.0,77,30.03,9.0,Calm,Calm,-,N/A,,Clear,0,2013-02-26 21:53:00
1:53 PM,-27.0,-32.1,77,30.01,9.0,Calm,Calm,-,N/A,,Clear,0,2013-02-26 22:53:00
2:53 PM,-24.0,-27.9,82,29.99,9.0,Calm,Calm,-,N/A,,Clear,0,2013-02-26 23:53:00
3:53 PM,-22.0,-26.0,82,29.96,9.0,Calm,Calm,-,N/A,,Clear,0,2013-02-27 00:53:00
4:53 PM,-22.0,-26.0,82,29.94,8.0,Calm,Calm,-,N/A,,Clear,0,2013-02-27 01:53:00
5:53 PM,-18.0,-24.0,74,29.92,9.0,NW,3.5,-,N/A,,Clear,310,2013-02-27 02:53:00
6:53 PM,-20.0,-24.0,82,29.90,8.0,WNW,3.5,-,N/A,,Clear,300,2013-02-27 03:53:00
7:53 PM,-18.9,-24.0,78,29.87,10.0,WNW,5.8,-,N/A,,Clear,300,2013-02-27 04:53:00
8:53 PM,-18.9,-25.1,74,29.84,10.0,Calm,Calm,-,N/A,,Clear,0,2013-02-27 05:53:00
9:53 PM,-13.0,-22.0,64,29.81,10.0,NNW,4.6,-,N/A,,Clear,340,2013-02-27 06:53:00
10:53 PM,-11.9,-20.9,64,29.79,10.0,NW,5.8,-,N/A,,Clear,310,2013-02-27 07:53:00
11:53 PM,-11.9,-20.9,64,29.77,10.0,Calm,Calm,-,N/A,,Clear,0,2013-02-27 08:53:00